{"data":{"norad_id":87051,"epoch":"2026-05-23T22:10:01.087680Z","epoch_age_seconds":158288,"freshness":"FRESH","line1":"1 87051U          26143.92362370  .00000571  00000+0  22866-3 0  9998","line2":"2 87051  65.7286 227.5193 0708020  66.8499 300.5523 13.46560984610411","mean_motion":13.46560984,"eccentricity":0.070802,"inclination_deg":65.7286,"raan_deg":227.5193,"arg_perigee_deg":66.8499,"mean_anomaly_deg":300.5523,"bstar":0.00022866,"rev_number":61041,"period_min":106.93908535226,"perigee_km":556.53764111025,"apogee_km":1613.338955663,"semimajor_km":7463.0752983866,"source":"CELESTRAK","updated_at":"2026-05-25T13:38:11.435644Z"}}